Stündliche Wetter Dabek

Heute, 23 Oktober, Freitag

Zeit Temperatur Niederschläge Wind Luftdruck Luftfeuchtigkeit
00:00 +12°C° 0 mm 4 m/S 742 mmHg 73%
01:00 +12°C° 0 mm 4 m/S 742 mmHg 73%
02:00 +12°C° 0 mm 3 m/S 742 mmHg 75%
03:00 +11°C° 0 mm 3 m/S 741 mmHg 76%
04:00 +11°C° 0 mm 3 m/S 741 mmHg 78%
05:00 +11°C° 0 mm 3 m/S 741 mmHg 78%
06:00 +11°C° 0 mm 3 m/S 741 mmHg 78%
07:00 +11°C° 0 mm 3 m/S 741 mmHg 79%
08:00 +12°C° 0 mm 4 m/S 741 mmHg 75%
09:00 +13°C° 0 mm 4 m/S 740 mmHg 71%
10:00 +14°C° 0 mm 4 m/S 740 mmHg 68%
11:00 +15°C° 0 mm 4 m/S 740 mmHg 65%
12:00 +17°C° 0 mm 3 m/S 740 mmHg 62%
13:00 +18°C° 0 mm 3 m/S 740 mmHg 59%
14:00 +18°C° 0 mm 3 m/S 739 mmHg 63%
15:00 +17°C° 0 mm 2 m/S 739 mmHg 66%
16:00 +16°C° 0 mm 2 m/S 739 mmHg 69%
17:00 +16°C° 0 mm 2 m/S 739 mmHg 71%
18:00 +15°C° 0 mm 2 m/S 739 mmHg 73%
19:00 +14°C° 0 mm 2 m/S 739 mmHg 75%
20:00 +14°C° 0 mm 2 m/S 739 mmHg 75%
21:00 +13°C° 0 mm 3 m/S 739 mmHg 76%
22:00 +13°C° 0 mm 3 m/S 739 mmHg 77%
23:00 +13°C° 0 mm 3 m/S 739 mmHg 78%

Morgen, 24 Oktober, Samstag

Zeit Temperatur Niederschläge Wind Luftdruck Luftfeuchtigkeit
00:00 +13°C° 0 mm 3 m/S 739 mmHg 79%
01:00 +12°C° 0 mm 3 m/S 739 mmHg 80%
02:00 +12°C° 0.1 mm 3 m/S 738 mmHg 82%
03:00 +12°C° 0.1 mm 3 m/S 738 mmHg 83%
04:00 +12°C° 0.1 mm 3 m/S 738 mmHg 85%
05:00 +12°C° 1.2 mm 3 m/S 738 mmHg 88%
06:00 +12°C° 1.2 mm 4 m/S 738 mmHg 91%
07:00 +11°C° 1.2 mm 4 m/S 738 mmHg 94%
08:00 +12°C° 0.6 mm 4 m/S 739 mmHg 93%
09:00 +12°C° 0.6 mm 5 m/S 739 mmHg 92%
10:00 +13°C° 0.6 mm 5 m/S 739 mmHg 91%
11:00 +14°C° 0.1 mm 5 m/S 740 mmHg 86%
12:00 +14°C° 0.1 mm 5 m/S 740 mmHg 81%
13:00 +15°C° 0.1 mm 5 m/S 741 mmHg 77%
14:00 +15°C° 0.1 mm 4 m/S 741 mmHg 77%
15:00 +14°C° 0.1 mm 4 m/S 741 mmHg 78%
16:00 +14°C° 0.1 mm 3 m/S 741 mmHg 78%
17:00 +13°C° 0 mm 3 m/S 742 mmHg 82%
18:00 +13°C° 0 mm 2 m/S 742 mmHg 85%
19:00 +12°C° 0 mm 2 m/S 743 mmHg 88%
20:00 +12°C° 0 mm 2 m/S 743 mmHg 89%
21:00 +10°C° 0 mm 2 m/S 743 mmHg 90%
22:00 +10°C° 0 mm 2 m/S 743 mmHg 91%
23:00 +10°C° 0 mm 2 m/S 743 mmHg 91%

übermorgen, 25 Oktober, Sonntag

Zeit Temperatur Niederschläge Wind Luftdruck Luftfeuchtigkeit
00:00 +10°C° 0 mm 2 m/S 743 mmHg 91%
01:00 +10°C° 0 mm 1 m/S 743 mmHg 90%
02:00 +10°C° 0 mm 1 m/S 743 mmHg 90%
03:00 +9°C° 0 mm 2 m/S 743 mmHg 90%
04:00 +9°C° 0 mm 2 m/S 743 mmHg 90%
05:00 +9°C° 0 mm 2 m/S 743 mmHg 90%
06:00 +9°C° 0 mm 2 m/S 743 mmHg 91%
07:00 +9°C° 0 mm 2 m/S 743 mmHg 91%
08:00 +12°C° 0 mm 2 m/S 743 mmHg 85%
09:00 +12°C° 0 mm 3 m/S 743 mmHg 78%
10:00 +14°C° 0 mm 3 m/S 743 mmHg 72%
11:00 +14°C° 0 mm 3 m/S 743 mmHg 68%
12:00 +16°C° 0 mm 3 m/S 743 mmHg 65%
13:00 +17°C° 0 mm 3 m/S 742 mmHg 61%
14:00 +16°C° 0 mm 3 m/S 742 mmHg 65%
15:00 +16°C° 0 mm 3 m/S 742 mmHg 68%
16:00 +14°C° 0 mm 3 m/S 741 mmHg 72%
17:00 +13°C° 0 mm 3 m/S 741 mmHg 75%
18:00 +12°C° 0 mm 3 m/S 741 mmHg 78%
19:00 +11°C° 0 mm 4 m/S 741 mmHg 81%
20:00 +11°C° 0 mm 4 m/S 741 mmHg 83%
21:00 +10°C° 0 mm 3 m/S 741 mmHg 84%
22:00 +10°C° 0 mm 3 m/S 741 mmHg 86%
23:00 +10°C° 0 mm 3 m/S 741 mmHg 88%

, 26 Oktober, Montag

Zeit Temperatur Niederschläge Wind Luftdruck Luftfeuchtigkeit
00:00 +9°C° 0 mm 3 m/S 740 mmHg 90%
01:00 +9°C° 0 mm 3 m/S 740 mmHg 91%
02:00 +9°C° 0 mm 3 m/S 740 mmHg 92%
03:00 +8°C° 0 mm 2 m/S 739 mmHg 92%
04:00 +8°C° 0 mm 2 m/S 739 mmHg 92%
05:00 +8°C° 0 mm 2 m/S 738 mmHg 92%
06:00 +8°C° 0 mm 2 m/S 738 mmHg 92%
07:00 +8°C° 0 mm 3 m/S 738 mmHg 91%
08:00 +9°C° 0 mm 3 m/S 738 mmHg 85%
09:00 +11°C° 0 mm 3 m/S 737 mmHg 78%
10:00 +13°C° 0 mm 4 m/S 737 mmHg 71%
11:00 +14°C° 0 mm 4 m/S 737 mmHg 70%
12:00 +14°C° 0 mm 4 m/S 737 mmHg 69%
13:00 +15°C° 0 mm 4 m/S 736 mmHg 67%
14:00 +15°C° 0 mm 4 m/S 736 mmHg 69%
15:00 +15°C° 0 mm 4 m/S 735 mmHg 71%
16:00 +14°C° 0 mm 3 m/S 735 mmHg 73%
17:00 +13°C° 0 mm 3 m/S 735 mmHg 76%
18:00 +13°C° 0 mm 3 m/S 735 mmHg 79%
19:00 +12°C° 0 mm 3 m/S 735 mmHg 82%
20:00 +12°C° 0 mm 3 m/S 735 mmHg 82%
21:00 +11°C° 0 mm 3 m/S 735 mmHg 82%
22:00 +11°C° 0 mm 3 m/S 735 mmHg 82%
23:00 +11°C° 0 mm 3 m/S 735 mmHg 80%

26 Oktober, Montag

Zeit Temperatur Niederschläge Wind Luftdruck Luftfeuchtigkeit
00:00 +9°C° 0 mm 3 m/S 740 mmHg 90%
01:00 +9°C° 0 mm 3 m/S 740 mmHg 91%
02:00 +9°C° 0 mm 3 m/S 740 mmHg 92%
03:00 +8°C° 0 mm 2 m/S 739 mmHg 92%
04:00 +8°C° 0 mm 2 m/S 739 mmHg 92%
05:00 +8°C° 0 mm 2 m/S 738 mmHg 92%
06:00 +8°C° 0 mm 2 m/S 738 mmHg 92%
07:00 +8°C° 0 mm 3 m/S 738 mmHg 91%
08:00 +9°C° 0 mm 3 m/S 738 mmHg 85%
09:00 +11°C° 0 mm 3 m/S 737 mmHg 78%
10:00 +13°C° 0 mm 4 m/S 737 mmHg 71%
11:00 +14°C° 0 mm 4 m/S 737 mmHg 70%
12:00 +14°C° 0 mm 4 m/S 737 mmHg 69%
13:00 +15°C° 0 mm 4 m/S 736 mmHg 67%
14:00 +15°C° 0 mm 4 m/S 736 mmHg 69%
15:00 +15°C° 0 mm 4 m/S 735 mmHg 71%
16:00 +14°C° 0 mm 3 m/S 735 mmHg 73%
17:00 +13°C° 0 mm 3 m/S 735 mmHg 76%
18:00 +13°C° 0 mm 3 m/S 735 mmHg 79%
19:00 +12°C° 0 mm 3 m/S 735 mmHg 82%
20:00 +12°C° 0 mm 3 m/S 735 mmHg 82%
21:00 +11°C° 0 mm 3 m/S 735 mmHg 82%
22:00 +11°C° 0 mm 3 m/S 735 mmHg 82%
23:00 +11°C° 0 mm 3 m/S 735 mmHg 80%

27 Oktober, Dienstag

Zeit Temperatur Niederschläge Wind Luftdruck Luftfeuchtigkeit
00:00 +11°C° 0 mm 3 m/S 735 mmHg 78%
01:00 +11°C° 0 mm 4 m/S 735 mmHg 77%
02:00 +11°C° 0 mm 4 m/S 735 mmHg 77%
03:00 +11°C° 0 mm 4 m/S 735 mmHg 77%
04:00 +11°C° 0 mm 4 m/S 735 mmHg 77%
05:00 +11°C° 0 mm 3 m/S 736 mmHg 78%
06:00 +11°C° 0 mm 3 m/S 736 mmHg 79%
07:00 +10°C° 0 mm 3 m/S 737 mmHg 80%
08:00 +12°C° 0 mm 3 m/S 737 mmHg 75%
09:00 +14°C° 0 mm 3 m/S 737 mmHg 70%
10:00 +16°C° 0 mm 3 m/S 737 mmHg 64%
11:00 +17°C° 0 mm 3 m/S 737 mmHg 61%
12:00 +18°C° 0 mm 3 m/S 738 mmHg 58%
13:00 +19°C° 0 mm 3 m/S 738 mmHg 55%
14:00 +18°C° 0 mm 3 m/S 738 mmHg 60%
15:00 +17°C° 0 mm 2 m/S 738 mmHg 64%
16:00 +18°C° 0 mm 1 m/S 738 mmHg 69%
17:00 +16°C° 0 mm 2 m/S 738 mmHg 72%
18:00 +15°C° 0 mm 2 m/S 738 mmHg 75%
19:00 +14°C° 0 mm 2 m/S 738 mmHg 78%
20:00 +14°C° 0 mm 2 m/S 739 mmHg 81%
21:00 +13°C° 0 mm 1 m/S 739 mmHg 83%
22:00 +13°C° 0 mm 1 m/S 739 mmHg 85%
23:00 +13°C° 0 mm 1 m/S 739 mmHg 86%

28 Oktober, Mittwoch

Zeit Temperatur Niederschläge Wind Luftdruck Luftfeuchtigkeit
00:00 +12°C° 0 mm 1 m/S 739 mmHg 86%
01:00 +11°C° 0 mm 0 m/S 739 mmHg 86%
02:00 +11°C° 0 mm 0 m/S 739 mmHg 87%
03:00 +11°C° 0 mm 0 m/S 739 mmHg 87%
04:00 +10°C° 0 mm 0 m/S 739 mmHg 88%
05:00 +11°C° 0 mm 1 m/S 739 mmHg 88%
06:00 +11°C° 0 mm 1 m/S 740 mmHg 89%
07:00 +11°C° 0 mm 1 m/S 740 mmHg 90%
08:00 +12°C° 0 mm 1 m/S 740 mmHg 85%
09:00 +13°C° 0 mm 1 m/S 740 mmHg 79%
10:00 +15°C° 0 mm 1 m/S 740 mmHg 74%
11:00 +15°C° 0 mm 1 m/S 740 mmHg 71%
12:00 +16°C° 0 mm 2 m/S 740 mmHg 68%
13:00 +17°C° 0 mm 2 m/S 740 mmHg 65%
14:00 +16°C° 0 mm 2 m/S 740 mmHg 69%
15:00 +15°C° 0 mm 2 m/S 740 mmHg 72%
16:00 +15°C° 0 mm 1 m/S 740 mmHg 76%
17:00 +14°C° 0 mm 2 m/S 740 mmHg 79%
18:00 +13°C° 0 mm 2 m/S 741 mmHg 83%
19:00 +13°C° 0 mm 2 m/S 741 mmHg 87%
20:00 +13°C° 0 mm 2 m/S 741 mmHg 89%
21:00 +12°C° 0 mm 2 m/S 741 mmHg 91%
22:00 +12°C° 0 mm 2 m/S 741 mmHg 93%
23:00 +12°C° 0 mm 2 m/S 741 mmHg 94%
Mehr zeigen

Wir brauchen deine Erlaubnis

Meteoprog und unser Service Anbieter werden persönliche Daten aufbewahren, so wie Cookies, Geräte Bezeichnung oder ähnliche Technologien von deinem Gerät und Prozess, so wie Persönliche Daten Inhalte und Werbungen, genauso wie social Media und den Verkehr zu analysieren.

  • Aufbewahrung und/oder Zugang zu deiner Geräte Informationen.

    Cookies, Geräte Bezeichnung oder andere Informationen, können aufbewahrt oder Zugang zu deinem Gerät erhalten, für den Grund, der oben angegeben wird.

  • Personalisierte Werbung und Inhalte, Messungen, Einblick in das Publikum und Produkt Entwicklung.

    Werbungen und Inhalte können personalisiert werden, basierend auf ein Profil. Mehr Daten können besser personalisierte Werbungen und Inhalte hinzufügen. Werbung und Inhalte können gezeigt und gemessen werden. Einblicke über das Publikum, welche die Werbung gesehen haben und den Inhalt, können abgeleitet werden. So wie Daten können genutzt werden, um es zu verbessern oder die Benutzer Erfahrung zu verbessern das System und die Software.

Wenn du “Ich stimme zu” klickst, erlaubst du uns, die Cookies zu benutzen die Geräte Bezeichnung, den Web oder ähnliche Technologien zu benutzen. Deine Settings, können in deinem Gerät bei deinem Browser geändert werden.

Für den bestimmten Zweck, berechtigten Interessen beruhen darauf, mehr als auf den Inhalt. Du kannst mehr darüber in unseren Privaten und Cookie Politik lesen.